[[{"header":{"parameterUnit":"m.s-1","parameterCategory":1,"la1":30.2991,"la2":30.254,"lo1":-89.0895,"lo2":-89.0444,"dy":0.0017,"dx":0.0017,"nx":28,"ny":28,"refTime":"2023-09-12T09:00:00:Z","depth":0,"parameterNumber":2,"parameterNumberName":"U-component_of_WINDS"},"data":[0,0,0,0,0,0,0,0,0,0,0,0,0,0,0,0,0,0,0,0,0,0,0,0,0,0,0,0,0,0,0,0,0,0,0,0,0,0,0,0,0,0,0,0,0,0,0,0,0,0,0,0,0,0,0,0,0,0,0.0768,0.0767,0,0.0673,0.0672,0.0671,0.0612,0.0611,0.0611,0.0611,0.0511,0.0509,0.0506,0,0,0,0,0,0,0,0,0,0,0,0,0,0.0895,0.0893,0.0768,0.0767,0.0766,0.0673,0.0672,0.0671,0.0612,0.0611,0.0611,0.0611,0.0512,0.0509,0.0506,0,0,0,0,0,0,0,0,0,0,0,0,0,0.0824,0.0892,0.0769,0.0725,0.0721,0.0674,0.0672,0.067,0.0612,0.0611,0.0611,0.061,0.0513,0.0509,0.0506,0.0493,0,0,0.0495,0.0493,0,0,0,0,0,0,0,0,0.0828,0.0819,0.0733,0.0728,0.0723,0.0654,0.068,0.0611,0.0612,0.0653,0.0611,0.061,0.0559,0.0551,0.0534,0.0488,0.0484,0.0494,0.0492,0.0491,0.049,0,0,0,0,0,0,0,0.0833,0.0823,0.0731,0.0732,0.0726,0.071,0.0699,0.0667,0.061,0.0649,0.0645,0.0635,0.0556,0.0538,0.0532,0.0483,0.0494,0.0491,0.0489,0.0488,0.0418,0.0419,0,0,0,0,0,0,0.0845,0.0828,0.0734,0.0728,0.0775,0.0708,0.0696,0.0676,0.061,0.0599,0.0635,0.0632,0.0544,0.0536,0.0528,0.0507,0.0491,0.0487,0.0485,0.0418,0.0418,0.0419,0,0,0,0,0,0,0.0848,0.0837,0.0737,0.0776,0.0762,0.0706,0.0685,0.0675,0.0657,0.0599,0.0588,0.0628,0.0544,0.0533,0.0502,0.0502,0.0486,0.0483,0.0418,0.0418,0.0419,0.0466,0,0,0,0,0,0,0.0852,0.0839,0.0835,0.0777,0.0761,0.0714,0.0685,0.0673,0.0651,0.0647,0.0589,0.0579,0.0542,0.0507,0.0498,0.0497,0.048,0.0417,0.0418,0.0418,0.0464,0.0468,0.0471,0,0,0,0,0,0.0857,0.0852,0.0835,0.0824,0.0754,0.0715,0.0705,0.0664,0.0652,0.0646,0.0608,0.0581,0.0504,0.0505,0.0494,0.0492,0.0417,0.0418,0.0418,0.0462,0.0467,0.0471,0,0,0,0,0,0,0.0911,0.0844,0.0824,0.08,0.0764,0.0705,0.0696,0.067,0.0636,0.0633,0.0582,0.0569,0.0543,0.0514,0.0516,0.0475,0.0457,0.0456,0.0494,0.0498,0.0502,0.0509,0.0477,0,0,0,0,0,0.092,0.0895,0.0837,0.0821,0.0804,0.0754,0.0735,0.0706,0.0665,0.0649,0.0609,0.057,0.0537,0.0516,0.0483,0.046,0.0445,0.0453,0.0457,0.046,0.0459,0.0442,0.0444,0.0421,0.0421,0.0421,0,0,0.0939,0.0899,0.0886,0.0831,0.0799,0.0772,0.0741,0.0714,0.0693,0.0645,0.0613,0.0582,0.0535,0.0507,0.0493,0.0483,0.0462,0.0461,0.0464,0.0461,0.0443,0.0445,0.0447,0.0421,0.0421,0.0421,0,0,0.0959,0.0927,0.091,0.0878,0.083,0.0797,0.0792,0.0737,0.0715,0.0682,0.0644,0.0618,0.0563,0.053,0.0506,0.0511,0.0484,0.0502,0.052,0.0504,0.0506,0.0508,0.0508,0.0508,0.0501,0.0501,0.0501,0,0.0988,0.0947,0.0904,0.0879,0.0855,0.081,0.0791,0.0762,0.0706,0.0689,0.0679,0.0607,0.0572,0.0535,0.0536,0.0519,0.0511,0.0508,0.051,0.0511,0.0511,0.0511,0.0511,0.0504,0.0503,0.0503,0.0503,0,0.0984,0.0956,0.0947,0.0894,0.0869,0.0847,0.0799,0.0779,0.0752,0.0718,0.0684,0.0641,0.0596,0.0585,0.0559,0.0544,0.0538,0.052,0.0501,0.0516,0.0515,0.0514,0.0507,0.0506,0.0505,0.0505,0,0,0.1035,0.0958,0.0955,0.0929,0.0873,0.0849,0.0824,0.0782,0.0764,0.0726,0.0703,0.0656,0.0637,0.061,0.0579,0.0566,0.057,0.0548,0.0546,0.0552,0.0548,0.0562,0.0562,0.0552,0.0552,0.0552,0.0551,0,0.1045,0.1,0.0959,0.0927,0.0899,0.0856,0.0834,0.0796,0.0764,0.0734,0.0698,0.0665,0.0645,0.0627,0.0612,0.0573,0.0568,0.0573,0.0528,0.0527,0.054,0.0562,0.0577,0.0579,0.0551,0.0551,0.0551,0,0.1051,0.1015,0.0981,0.0925,0.0912,0.0893,0.0849,0.0822,0.0777,0.0755,0.0724,0.0691,0.0661,0.0646,0.0602,0.0606,0.0585,0.0562,0.0561,0.0555,0.0539,0.0554,0.0578,0.0578,0.055,0.055,0.055,0,0.109,0.1033,0.1004,0.0984,0.0919,0.0906,0.0878,0.0833,0.0809,0.077,0.0754,0.0712,0.0689,0.0657,0.0613,0.0606,0.0573,0.0555,0.0551,0.0553,0.0546,0.0547,0.0566,0.0535,0.0535,0.0535,0.0535,0,0.1105,0.1085,0.1021,0.1003,0.0979,0.0932,0.0908,0.0876,0.0836,0.081,0.077,0.0746,0.069,0.0659,0.0625,0.0592,0.0583,0.0562,0.0553,0.0565,0.0567,0.055,0.0548,0.0535,0.0535,0.0535,0.0535,0,0.1144,0.11,0.1066,0.1007,0.0991,0.0976,0.0924,0.0904,0.087,0.0837,0.0826,0.0772,0.0733,0.0686,0.0632,0.0609,0.0579,0.0566,0.0594,0.0589,0.0588,0.0588,0.0595,0.0593,0.0565,0.0566,0.0566,0,0.1155,0.1139,0.1078,0.1058,0.1031,0.1,0.0975,0.0927,0.0903,0.085,0.0836,0.0794,0.0758,0.0697,0.0652,0.0609,0.0594,0.06,0.0588,0.06,0.0592,0.0593,0.059,0.0603,0.0603,0.0604,0.0604,0,0.118,0.1159,0.1125,0.1084,0.1056,0.102,0.0983,0.0969,0.0914,0.0888,0.0848,0.082,0.0764,0.0723,0.0674,0.0644,0.0614,0.0608,0.0605,0.0616,0.0633,0.0622,0.0601,0.0608,0.0608,0.0607,0.0607,0.0607,0.1204,0.1187,0.1141,0.1104,0.1071,0.1037,0.1015,0.0978,0.0944,0.0895,0.0869,0.0829,0.0782,0.0714,0.0685,0.0652,0.0641,0.0637,0.0636,0.0635,0.0638,0.0639,0.0643,0.0643,0.0642,0.0642,0.0642,0,0.1225,0.1193,0.116,0.1109,0.108,0.1056,0.1013,0.099,0.0955,0.0915,0.088,0.0833,0.0792,0.0743,0.0698,0.068,0.0665,0.067,0.067,0.0663,0.0651,0.0657,0.0683,0.0683,0.0683,0.0683,0.0683,0.0683,0.1232,0.1201,0.1174,0.1125,0.1093,0.1054,0.1032,0.0999,0.0966,0.0916,0.0882,0.085,0.0806,0.0757,0.0717,0.0704,0.0688,0.0697,0.0679,0.0668,0.0664,0.0661,0.0667,0.0694,0.0694,0.0694,0.0694,0.0694]},{"header":{"parameterUnit":"m.s-1","parameterCategory":1,"la1":30.2991,"la2":30.254,"lo1":-89.0895,"lo2":-89.0444,"dy":0.0017,"dx":0.0017,"nx":28,"ny":28,"refTime":"2023-09-12T09:00:00:Z","depth":0,"parameterNumber":3,"parameterNumberName":"V-component_of_WINDS"},"data":[0,0,0,0,0,0,0,0,0,0,0,0,0,0,0,0,0,0,0,0,0,0,0,0,0,0,0,0,0,0,0,0,0,0,0,0,0,0,0,0,0,0,0,0,0,0,0,0,0,0,0,0,0,0,0,0,0,0,3.6388,3.639,0,3.6507,3.6509,3.651,3.6494,3.6492,3.649,3.6489,3.6606,3.6611,3.6616,0,0,0,0,0,0,0,0,0,0,0,0,0,3.6142,3.6147,3.6388,3.639,3.6391,3.6507,3.6509,3.651,3.6495,3.6492,3.649,3.6488,3.6605,3.661,3.6616,0,0,0,0,0,0,0,0,0,0,0,0,0,3.6254,3.6149,3.6388,3.6398,3.64,3.6507,3.6509,3.6511,3.6495,3.6492,3.6489,3.6487,3.6603,3.661,3.6617,3.6721,0,0,3.664,3.6643,0,0,0,0,0,0,0,0,3.6248,3.6263,3.6395,3.6397,3.64,3.6483,3.6465,3.6581,3.6496,3.6459,3.6489,3.6485,3.6567,3.6577,3.6606,3.6727,3.6732,3.664,3.6645,3.6648,3.665,0,0,0,0,0,0,0,3.624,3.6258,3.6435,3.6397,3.64,3.6394,3.6407,3.6487,3.6528,3.6462,3.6461,3.6475,3.6568,3.6599,3.6609,3.6733,3.664,3.6647,3.6651,3.6654,3.6941,3.6945,0,0,0,0,0,0,3.623,3.6251,3.6431,3.6439,3.6315,3.6401,3.6415,3.6459,3.6527,3.6535,3.6478,3.6474,3.6588,3.66,3.6613,3.6736,3.6648,3.6655,3.6659,3.6938,3.6942,3.6946,0,0,0,0,0,0,3.6225,3.6247,3.6427,3.6345,3.6367,3.6408,3.6458,3.6463,3.6494,3.6539,3.6546,3.6502,3.6586,3.6602,3.6694,3.674,3.6658,3.6665,3.6935,3.694,3.6944,3.6986,0,0,0,0,0,0,3.6218,3.6245,3.6286,3.6346,3.6372,3.6508,3.6461,3.6467,3.6507,3.6504,3.6564,3.6571,3.6585,3.6683,3.6701,3.6749,3.6671,3.6931,3.6937,3.6942,3.698,3.6991,3.7001,0,0,0,0,0,3.6209,3.6293,3.6288,3.631,3.6425,3.651,3.6525,3.6541,3.6511,3.6552,3.658,3.6569,3.6733,3.6692,3.6713,3.6763,3.6928,3.6935,3.6942,3.6976,3.6989,3.7,0,0,0,0,0,0,3.6237,3.6301,3.6297,3.6403,3.6451,3.6508,3.6559,3.6555,3.6612,3.6606,3.6622,3.6635,3.6727,3.6755,3.6709,3.6866,3.6826,3.6837,3.6844,3.6857,3.6867,3.6858,3.6677,0,0,0,0,0,3.6255,3.6321,3.6373,3.6461,3.6486,3.6519,3.6557,3.6564,3.6615,3.6635,3.667,3.6718,3.678,3.6821,3.6881,3.6985,3.6996,3.7029,3.704,3.7048,3.7057,3.7111,3.7125,3.6969,3.6969,3.6969,0,0,3.6294,3.6337,3.6378,3.6468,3.6507,3.6572,3.6536,3.6608,3.6655,3.6645,3.6733,3.6761,3.6815,3.6913,3.6958,3.6939,3.7103,3.7057,3.7063,3.7068,3.712,3.7134,3.7147,3.6974,3.6973,3.6972,0,0,3.6397,3.6438,3.6514,3.6554,3.6613,3.6633,3.6652,3.6709,3.6727,3.6816,3.6809,3.6865,3.6973,3.7011,3.7044,3.716,3.715,3.7179,3.7231,3.7284,3.7296,3.7307,3.7345,3.7359,3.7188,3.7188,3.7188,0,3.6437,3.6537,3.6554,3.6626,3.6664,3.6659,3.6735,3.6772,3.6847,3.6873,3.6851,3.6984,3.702,3.7125,3.7153,3.7181,3.72,3.7171,3.7293,3.7304,3.7315,3.7351,3.7366,3.7191,3.7191,3.7191,3.719,0,3.6582,3.6651,3.6705,3.6778,3.6823,3.6897,3.6923,3.6966,3.6969,3.6992,3.708,3.7124,3.7191,3.7217,3.7222,3.7322,3.7308,3.729,3.7249,3.7332,3.7366,3.7381,3.7195,3.7194,3.7193,3.7193,0,0,3.6705,3.6786,3.6805,3.6837,3.6901,3.6954,3.7026,3.7092,3.7127,3.7179,3.7238,3.7328,3.7311,3.7349,3.7357,3.7404,3.7488,3.7379,3.7381,3.7396,3.7598,3.761,3.7626,3.7483,3.7486,3.7488,3.7593,0,3.6812,3.6941,3.6957,3.7071,3.7133,3.7128,3.7191,3.7235,3.7258,3.7312,3.7337,3.7399,3.7374,3.7396,3.7442,3.7469,3.7529,3.7462,3.7536,3.7538,3.752,3.7645,3.7658,3.7754,3.7607,3.7609,3.7611,0,3.6955,3.701,3.713,3.7183,3.721,3.7266,3.7326,3.738,3.7429,3.7442,3.7484,3.7486,3.7558,3.7516,3.7613,3.7567,3.7598,3.7616,3.762,3.7626,3.7578,3.7651,3.7785,3.7799,3.7633,3.7631,3.7629,0,3.7029,3.7134,3.7218,3.7246,3.7311,3.735,3.7378,3.7425,3.7463,3.7516,3.754,3.7601,3.7633,3.7678,3.7696,3.7664,3.7791,3.7752,3.7802,3.7801,3.7827,3.7825,3.7966,3.7851,3.7851,3.7851,3.7851,0,3.7146,3.7218,3.7252,3.7304,3.7384,3.7401,3.748,3.7506,3.7548,3.7603,3.7603,3.7654,3.7675,3.7729,3.7743,3.7819,3.7835,3.7845,3.7848,3.7844,3.7842,3.7863,3.7856,3.7855,3.7854,3.7853,3.7853,0,3.7242,3.7268,3.7359,3.7413,3.7428,3.7484,3.7529,3.7577,3.7599,3.7669,3.7686,3.7719,3.7783,3.7805,3.7882,3.7891,3.7979,3.7977,3.7963,3.7962,3.801,3.8004,3.8167,3.8188,3.8063,3.8064,3.8065,0,3.7313,3.7369,3.7428,3.7465,3.7495,3.7556,3.7594,3.7613,3.7653,3.7712,3.7753,3.7816,3.7867,3.7968,3.7998,3.8056,3.8054,3.8107,3.8062,3.8056,3.8051,3.8047,3.8051,3.8114,3.8116,3.8117,3.8118,0,3.7436,3.7446,3.7503,3.7563,3.7609,3.7658,3.7704,3.7734,3.7759,3.7804,3.7869,3.7909,3.7987,3.8048,3.8107,3.8134,3.8129,3.8132,3.8146,3.8141,3.813,3.8134,3.7982,3.8127,3.8126,3.8126,3.8125,3.8125,3.7521,3.7569,3.7617,3.7679,3.7716,3.776,3.7807,3.7835,3.789,3.7955,3.7962,3.8031,3.8077,3.8156,3.8186,3.8239,3.8224,3.8245,3.825,3.8254,3.8256,3.8123,3.825,3.8249,3.8249,3.8249,3.8249,0,3.7641,3.7672,3.7729,3.7794,3.7842,3.7835,3.7886,3.7926,3.7987,3.8031,3.8081,3.8154,3.8213,3.8248,3.8306,3.8342,3.8341,3.8356,3.8353,3.8358,3.8268,3.8248,3.8356,3.8356,3.8356,3.8356,3.8356,3.8356,3.7709,3.7789,3.7805,3.7902,3.7932,3.8,3.8029,3.8068,3.8103,3.8185,3.8234,3.8257,3.8296,3.8357,3.841,3.8419,3.8439,3.8456,3.8462,3.8376,3.8365,3.8354,3.8336,3.8461,3.8461,3.8548,3.8549,3.855]}]]